Terminal Aerodrome Forecast
Issued by NWS Denver/Boulder, CO

Home | Current Version | Previous Version | Text Only | Print | Product List | Glossary On
Versions: 1 2 3 4 5 6 7 8 9 10 11 12 13 14 15 16 17 18 19 20 21 22 23 24 25 26 27 28 29 30 31 32 33 34 35 36 37 38 39 40 41 42 43 44 45 46 47 48 49 50
000
FTUS45 KBOU 012329
TAFDEN
TAF
KDEN 012329Z 0200/0306 14010KT P6SM SCT070 BKN200
     FM020300 17010KT P6SM SCT120 BKN200
     FM020700 23007KT P6SM FEW120
     FM021800 11005KT P6SM SCT090
     FM022100 14007KT P6SM SCT070
     FM030200 17008KT P6SM SCT120=

USA.gov is the U.S. government's official web portal to all federal, state and local government web resources and services.